Location: Oso Ridge
(35.0450°N, 108.0864°W)
Time: 05:59:50
(UTC-07:00)

Amateur Radio Satellites - All Passes

Search period start: 22 November 2014 05:29
Search period end: 23 November 2014 05:29
Location: Oso Ridge, 35.0450°N, 108.0864°W

Satellite Date Start Highest point End Downlink Frequencies (MHz)
Time Altitude Azimuth
MOZHAYETS 4 22 Nov 05:31:16 05:34:36 20° 266° (W) 05:37:58
STRAND 1 22 Nov 05:45:36 05:50:21 39° 71° (ENE) 05:55:07 437.568
PCSat 22 Nov 05:54:40 06:00:04 63° 62° (ENE) 06:05:24 145.827
Cubesat XI-IV 22 Nov 06:14:24 06:19:37 54° 101° (E) 06:24:47 437.490
JAS-2 22 Nov 06:22:11 06:28:52 42° 292° (WNW) 06:34:50 435.910
AO-7 22 Nov 06:25:23 06:31:21 22° 303° (WNW) 06:37:19 29.400- 29.500
BEESAT 3 22 Nov 06:33:04 06:37:16 88° 242° (WSW) 06:41:24 437.485
PRISM 22 Nov 06:41:47 06:44:10 15° 266° (W) 06:46:35 437.425
BEESAT 2 22 Nov 06:44:57 06:49:09 72° 243° (WSW) 06:53:16 435.950
AIST 1 22 Nov 06:45:10 06:48:46 24° 77° (ENE) 06:52:20
O/OREOS (USA 219) 22 Nov 06:55:58 07:00:26 64° 291° (WNW) 07:04:54 437.305
CUTE-I 22 Nov 06:57:04 07:02:18 59° 287° (WNW) 07:07:29 437.470
CUBESAT XI-V 22 Nov 06:59:17 07:03:32 33° 263° (W) 07:07:49 437.345
AIST 2 22 Nov 07:00:14 07:04:33 79° 61° (ENE) 07:08:46 435.215
SRMSAT 22 Nov 07:08:16 07:10:16 12° 194° (SSW) 07:12:16 437.500
ISS 22 Nov 07:16:21 07:19:15 27° 35° (NE) 07:22:08 145.825
STRAND 1 22 Nov 07:25:49 07:29:37 21° 265° (W) 07:33:26 437.568
PCSat 22 Nov 07:40:04 07:42:51 14° 257° (WSW) 07:45:38 145.827
HO-68 22 Nov 07:41:13 07:44:40 14° 91° (E) 07:48:05 435.675
Cubesat XI-IV 22 Nov 07:55:54 07:59:13 17° 296° (WNW) 08:02:31 437.490
SEEDS 22 Nov 08:07:26 08:08:45 11° 92° (E) 08:10:04 437.485
GONETS M04 22 Nov 08:09:05 08:17:21 48° 89° (E) 08:25:40
AIST 1 22 Nov 08:22:54 08:26:16 22° 271° (W) 08:29:36
CANX-2 22 Nov 08:27:25 08:31:03 26° 96° (E) 08:34:40 2200.000
GOMX 1 22 Nov 08:27:30 08:29:53 15° 94° (E) 08:32:17 467.674
AAUSAT CUBESAT 2 22 Nov 08:31:36 08:34:20 17° 94° (E) 08:37:03 437.432
BRITE-PL 22 Nov 08:33:46 08:37:13 25° 96° (E) 08:40:41 437.365/2234.400
COMPASS 1 22 Nov 08:43:12 08:46:47 26° 96° (E) 08:50:22 437.405
ISS 22 Nov 08:53:04 08:55:49 24° 230° (SW) 08:58:33 145.825
DELFI C3 22 Nov 08:58:35 09:00:39 14° 93° (E) 09:02:43 145.870
CUTE 1.7 & AOD 2 22 Nov 09:02:09 09:06:25 65° 101° (E) 09:10:40 437.475
POPSAT HIP 1 22 Nov 09:09:41 09:10:40 11° 65° (ENE) 09:11:40 437.405
UKube-1 22 Nov 09:11:10 09:14:26 21° 96° (E) 09:17:40 .
CINEMA 3 22 Nov 09:11:17 09:14:34 22° 96° (E) 09:17:53 145.822/145.860
CUBEBUG 2 22 Nov 09:14:18 09:16:37 14° 94° (E) 09:18:58 437.445
BUGSAT 1 22 Nov 09:17:53 09:19:10 11° 66° (ENE) 09:20:26 437.445
UWE-3 22 Nov 09:23:08 09:25:43 16° 94° (E) 09:28:19 435.000/436.395/437.385
Oscar 11 22 Nov 09:25:04 09:29:04 35° 98° (E) 09:33:02 145.826/435.025
HO-68 22 Nov 09:25:51 09:33:04 85° 286° (WNW) 09:40:13 435.675
TIGRISAT 22 Nov 09:29:52 09:33:29 27° 71° (ENE) 09:37:05 435.000
POLYITAN 1 22 Nov 09:37:56 09:41:22 24° 70° (ENE) 09:44:47 437.675
SEEDS 22 Nov 09:40:42 09:44:49 49° 285° (WNW) 09:48:55 437.485
UNISAT 6 22 Nov 09:40:45 09:44:43 37° 73° (ENE) 09:48:39 437.425
DOVE 4 22 Nov 09:41:03 09:45:13 89° 102° (ESE) 09:49:29 437.250
QB50P2 22 Nov 09:41:31 09:45:05 26° 71° (ENE) 09:48:39 145.880/145.840
DX 1 22 Nov 09:41:43 09:45:57 49° 100° (E) 09:50:08 434.975-435.025
DUCHIFAT 1 22 Nov 09:50:03 09:53:52 32° 72° (ENE) 09:57:40 145.980
VELOX 1 22 Nov 09:53:59 09:57:10 19° 95° (E) 10:00:19 145.980
CANX-2 22 Nov 10:03:33 10:06:49 22° 290° (WNW) 10:10:06 2200.000
GOMX 1 22 Nov 10:04:22 10:08:07 34° 287° (WNW) 10:11:54 467.674
AAUSAT CUBESAT 2 22 Nov 10:06:16 10:10:03 33° 288° (WNW) 10:13:51 437.432
ZACube-1 22 Nov 10:06:23 10:10:25 44° 99° (E) 10:14:31 437.345
GONETS M04 22 Nov 10:06:40 10:14:18 33° 287° (WNW) 10:22:02
NANOSAT C BR1 22 Nov 10:08:20 10:12:30 55° 75° (ENE) 10:16:40 145.865
ANTELSAT 22 Nov 10:08:36 10:12:54 83° 77° (ENE) 10:17:11 437.575/2403.000
BRITE-PL 22 Nov 10:12:35 10:15:36 20° 291° (WNW) 10:18:37 437.365/2234.400
AISAT 22 Nov 10:16:52 10:20:57 36° 98° (E) 10:25:00 437.250
QB50P1 22 Nov 10:17:33 10:21:48 72° 76° (ENE) 10:26:04 145.935-145.965
COMPASS 1 22 Nov 10:19:08 10:22:21 21° 290° (WNW) 10:25:34 437.405
HUMSAT D 22 Nov 10:20:55 10:24:48 38° 99° (E) 10:28:42 437.325/437.525
SHINDAISAT 22 Nov 10:31:33 10:33:12 27° 116° (ESE) 10:34:52 437.305
DELFI C3 22 Nov 10:32:14 10:36:05 38° 287° (WNW) 10:39:56 145.870
50 SAT 22 Nov 10:37:14 10:41:11 50° 100° (E) 10:45:08 437.505
POPSAT HIP 1 22 Nov 10:41:51 10:46:04 57° 259° (W) 10:50:16 437.405
FUNcube-1 22 Nov 10:42:31 10:46:42 65° 284° (WNW) 10:50:56 145.935
CUBEBUG 1 22 Nov 10:45:40 10:49:18 25° 96° (E) 10:52:53 437.445
UKube-1 22 Nov 10:46:51 10:50:34 28° 290° (WNW) 10:54:15 .
CINEMA 3 22 Nov 10:48:17 10:51:42 25° 289° (WNW) 10:55:11 145.822/145.860
CUBEBUG 2 22 Nov 10:49:32 10:53:26 38° 287° (WNW) 10:57:25 437.445
BUGSAT 1 22 Nov 10:49:58 10:54:10 55° 260° (W) 10:58:21 437.445
UWE-3 22 Nov 10:58:30 11:02:20 35° 287° (WNW) 11:06:14 435.000/436.395/437.385
Oscar 11 22 Nov 11:02:07 11:04:56 17° 292° (WNW) 11:07:44 145.826/435.025
TIGRISAT 22 Nov 11:07:00 11:10:12 20° 265° (W) 11:13:24 435.000
ESTCUBE 1 22 Nov 11:13:19 11:17:48 58° 101° (E) 11:22:15 437.505/2401.250
POLYITAN 1 22 Nov 11:13:45 11:17:12 24° 264° (W) 11:20:40 437.675
HO-68 22 Nov 11:16:13 11:19:42 14° 303° (WNW) 11:23:10 435.675
QB50P2 22 Nov 11:17:40 11:20:57 21° 264° (W) 11:24:14 145.880/145.840
UNISAT 6 22 Nov 11:19:10 11:21:37 15° 266° (W) 11:24:04 437.425
DX 1 22 Nov 11:19:50 11:21:44 13° 295° (WNW) 11:23:37 434.975-435.025
DUCHIFAT 1 22 Nov 11:26:56 11:29:46 17° 266° (W) 11:32:37 145.980
VELOX 1 22 Nov 11:29:52 11:33:46 31° 289° (WNW) 11:37:39 145.980
ZACube-1 22 Nov 11:44:27 11:46:25 13° 293° (WNW) 11:48:24 437.345
AISAT 22 Nov 11:54:24 11:57:17 17° 293° (WNW) 12:00:09 437.250
HUMSAT D 22 Nov 11:57:59 12:00:17 15° 292° (WNW) 12:02:35 437.325/437.525
50 SAT 22 Nov 12:15:02 12:16:02 11° 294° (WNW) 12:17:03 437.505
CUBEBUG 1 22 Nov 12:22:05 12:25:32 23° 291° (WNW) 12:28:58 437.445
SO-50 22 Nov 12:24:01 12:26:23 13° 45° (NE) 12:28:46 436.795
SPROUT 22 Nov 12:25:39 12:29:56 81° 102° (ESE) 12:34:12 437.525
TISAT 1 22 Nov 12:28:33 12:32:46 80° 284° (WNW) 12:36:57 437.305
YUBILEINY 22 Nov 12:35:37 12:40:52 17° 66° (ENE) 12:46:04 435.215
AUBIESAT-1 22 Nov 12:51:18 12:55:42 32° 101° (E) 12:59:59 437.475
ESTCUBE 1 22 Nov 12:52:28 12:54:08 12° 295° (WNW) 12:55:47 437.505/2401.250
M-CUBED/EXP-1 PRIME 22 Nov 12:53:31 12:58:05 37° 102° (ESE) 13:02:34 437.505
ITUPSAT 1 22 Nov 13:00:24 13:04:31 28° 97° (E) 13:08:35 437.325
Oscar 19 22 Nov 13:00:26 13:05:32 87° 76° (ENE) 13:10:41 437.125/150
SWISSCUBE 22 Nov 13:12:37 13:17:11 42° 99° (E) 13:21:41 437.505
AO-7 22 Nov 13:38:50 13:42:57 15° 52° (NE) 13:47:04 29.400- 29.500
KKS-1 22 Nov 13:40:07 13:42:18 14° 93° (E) 13:44:29 437.445
BEESAT 22 Nov 13:44:24 13:49:14 87° 103° (ESE) 13:54:00 436.000
ITAMSAT 1 22 Nov 13:44:28 13:49:41 88° 76° (ENE) 13:54:56 435.822/435.867
HORYU 2 22 Nov 13:49:33 13:52:47 20° 68° (ENE) 13:56:01 437.375
Gurwin Techsat 1B 22 Nov 13:53:31 13:58:43 59° 74° (ENE) 14:03:57 435.225
CUSAT 1 22 Nov 13:57:56 14:00:31 25° 280° (W) 14:02:49 437.405
SO-50 22 Nov 14:02:37 14:07:31 80° 242° (WSW) 14:12:24 436.795
DANDE 22 Nov 14:06:14 14:08:59 25° 280° (W) 14:11:22 436.750
AUBIESAT-1 22 Nov 14:26:26 14:30:29 26° 296° (WNW) 14:34:29 437.475
RS-15 22 Nov 14:28:42 14:33:01 13° 98° (E) 14:37:17 29.354- 29.394
M-CUBED/EXP-1 PRIME 22 Nov 14:29:00 14:32:50 23° 296° (WNW) 14:36:39 437.505
YUBILEINY 22 Nov 14:29:58 14:38:43 85° 265° (W) 14:47:23 435.215
VERMONT LUNAR 22 Nov 14:36:03 14:38:33 18° 143° (SE) 14:41:04 437.305
ITUPSAT 1 22 Nov 14:38:19 14:42:16 26° 291° (WNW) 14:46:13 437.325
STARS 22 Nov 14:42:29 14:46:44 48° 100° (E) 14:50:58 437.465
JAS-2 22 Nov 14:49:11 14:51:32 12° 55° (NE) 14:53:54 435.910
SWISSCUBE 22 Nov 14:51:31 14:54:40 18° 294° (WNW) 14:57:49 437.505
KKS-1 22 Nov 15:14:55 15:19:08 44° 287° (WNW) 15:23:20 437.445
HORYU 2 22 Nov 15:25:20 15:29:14 31° 262° (W) 15:33:10 437.375
AO-7 22 Nov 15:26:07 15:34:22 77° 71° (ENE) 15:42:40 29.400- 29.500
O/OREOS (USA 219) 22 Nov 15:32:06 15:33:50 12° 57° (ENE) 15:35:33 437.305
Gurwin Techsat 1B 22 Nov 15:36:16 15:39:01 14° 268° (W) 15:41:46 435.225
PHONESAT 2.4 22 Nov 15:46:21 15:49:53 43° 150° (SSE) 15:53:26 2401.200-2431.200
MaSat-1 22 Nov 15:56:43 15:59:55 68° 293° (WNW) 16:02:48 437.345
VERMONT LUNAR 22 Nov 16:13:06 16:16:44 87° 337° (NNW) 16:20:23 437.305
STARS 22 Nov 16:20:44 16:22:46 13° 294° (WNW) 16:24:48 437.465
JAS-2 22 Nov 16:27:41 16:34:58 65° 73° (ENE) 16:42:44 435.910
YUBILEINY 22 Nov 16:30:30 16:34:05 13° 283° (WNW) 16:37:39 435.215
RS-15 22 Nov 16:32:28 16:43:26 76° 115° (ESE) 16:54:19 29.354- 29.394
CUTE-I 22 Nov 16:37:45 16:41:22 19° 65° (ENE) 16:44:59 437.470
O/OREOS (USA 219) 22 Nov 17:09:12 17:13:35 58° 253° (WSW) 17:17:58 437.305
AO-7 22 Nov 17:22:19 17:27:47 19° 266° (W) 17:33:19 29.400- 29.500
PHONESAT 2.4 22 Nov 17:25:05 17:28:42 49° 345° (NNW) 17:32:19 2401.200-2431.200
MOZHAYETS 4 22 Nov 17:28:24 17:33:01 65° 285° (WNW) 17:37:37
Cubesat XI-IV 22 Nov 17:33:08 17:38:27 65° 74° (ENE) 17:43:46 437.490
VERMONT LUNAR 22 Nov 17:52:07 17:55:29 35° 353° (N) 17:58:52 437.305
STRAND 1 22 Nov 18:00:35 18:03:51 17° 94° (E) 18:07:05 437.568
JAS-2 22 Nov 18:14:53 18:20:26 23° 269° (W) 18:26:16 435.910
CUTE-I 22 Nov 18:15:49 18:21:00 49° 260° (W) 18:26:12 437.470
GONETS M04 22 Nov 18:24:40 18:30:38 20° 68° (ENE) 18:36:32
PRISM 22 Nov 18:26:17 18:30:33 81° 284° (WNW) 18:34:45 437.425
RS-15 22 Nov 18:47:38 18:56:50 30° 318° (NW) 19:06:07 29.354- 29.394
PCSat 22 Nov 18:53:34 18:55:34 12° 102° (ESE) 18:57:35 145.827
CUBESAT XI-V 22 Nov 18:59:01 19:03:43 79° 102° (ESE) 19:08:21 437.345
PHONESAT 2.4 22 Nov 19:04:31 19:07:57 34° 2° (N) 19:11:22 2401.200-2431.200
AIST 1 22 Nov 19:12:15 19:15:08 18° 87° (E) 19:18:03
Cubesat XI-IV 22 Nov 19:16:32 19:18:55 13° 268° (W) 19:21:19 437.490
CANX-2 22 Nov 19:19:15 19:21:17 13° 67° (ENE) 19:23:20 2200.000
VERMONT LUNAR 22 Nov 19:31:00 19:34:27 40° 11° (N) 19:37:54 437.305
GOMX 1 22 Nov 19:33:06 19:35:46 15° 68° (ENE) 19:38:21 467.674
COMPASS 1 22 Nov 19:33:46 19:35:37 13° 67° (ENE) 19:37:29 437.405
STRAND 1 22 Nov 19:38:21 19:43:14 46° 288° (WNW) 19:48:04 437.568
BRITE-PL 22 Nov 19:41:12 19:45:28 27° 71° (ENE) 19:49:29 437.365/2234.400
SHINDAISAT 22 Nov 19:46:19 19:47:47 20° 58° (ENE) 19:49:13 437.305
HO-68 22 Nov 19:50:30 19:57:24 52° 69° (ENE) 20:04:20 435.675
CUTE 1.7 & AOD 2 22 Nov 19:52:33 19:56:13 30° 72° (ENE) 19:59:54 437.475
UKube-1 22 Nov 20:04:51 20:06:48 13° 65° (ENE) 20:08:46 .
CINEMA 3 22 Nov 20:11:20 20:13:57 16° 68° (ENE) 20:16:30 145.822/145.860
Oscar 11 22 Nov 20:17:44 20:20:47 19° 69° (ENE) 20:23:50 145.826/435.025
GONETS M04 22 Nov 20:19:31 20:28:20 78° 266° (W) 20:37:05
BEESAT 3 22 Nov 20:25:15 20:29:03 39° 114° (ESE) 20:32:54 437.485
SEEDS 22 Nov 20:29:44 20:33:53 75° 77° (ENE) 20:38:05 437.485
PCSat 22 Nov 20:32:53 20:38:16 72° 297° (WNW) 20:43:42 145.827
DX 1 22 Nov 20:34:38 20:38:25 29° 71° (ENE) 20:42:12 434.975-435.025
BEESAT 2 22 Nov 20:37:30 20:41:26 49° 115° (ESE) 20:45:27 435.950
PHONESAT 2.4 22 Nov 20:43:25 20:47:07 65° 19° (NNE) 20:50:47 2401.200-2431.200
DOVE 4 22 Nov 20:43:25 20:48:10 63° 76° (ENE) 20:52:37 437.250
AIST 1 22 Nov 20:48:37 20:52:30 31° 282° (WNW) 20:56:27
VELOX 1 22 Nov 20:50:22 20:52:22 13° 65° (ENE) 20:54:23 145.980
CANX-2 22 Nov 20:52:50 20:56:49 43° 261° (W) 21:00:51 2200.000
AAUSAT CUBESAT 2 22 Nov 20:54:01 20:58:09 75° 259° (WSW) 21:02:19 437.432
AIST 2 22 Nov 20:55:52 20:59:44 37° 113° (ESE) 21:03:40 435.215
ZACube-1 22 Nov 21:00:15 21:03:40 24° 71° (ENE) 21:07:03 437.345
COMPASS 1 22 Nov 21:06:59 21:10:56 44° 261° (W) 21:14:56 437.405
GOMX 1 22 Nov 21:08:40 21:13:32 50° 260° (W) 21:18:05 467.674
VERMONT LUNAR 22 Nov 21:09:29 21:13:05 65° 207° (SSW) 21:16:40 437.305
RS-15 22 Nov 21:11:07 21:14:38 12° 353° (N) 21:18:11 29.354- 29.394
HUMSAT D 22 Nov 21:11:15 21:14:10 19° 69° (ENE) 21:17:04 437.325/437.525
AISAT 22 Nov 21:12:34 21:16:08 24° 69° (ENE) 21:19:42 437.250
DELFI C3 22 Nov 21:17:32 21:21:35 84° 78° (ENE) 21:25:41 145.870
BRITE-PL 22 Nov 21:19:16 21:23:50 30° 263° (W) 21:28:08 437.365/2234.400
50 SAT 22 Nov 21:24:00 21:27:05 21° 70° (ENE) 21:30:10 437.505
CUTE 1.7 & AOD 2 22 Nov 21:29:16 21:32:10 18° 266° (W) 21:35:05 437.475
FUNcube-1 22 Nov 21:35:26 21:39:39 64° 76° (ENE) 21:43:48 145.935
UKube-1 22 Nov 21:38:18 21:42:31 49° 260° (W) 21:46:45 .
UNISAT 6 22 Nov 21:39:04 21:39:33 10° 92° (E) 21:40:03 437.425
HO-68 22 Nov 21:39:35 21:45:19 26° 264° (W) 21:51:06 435.675
CUBEBUG 1 22 Nov 21:40:02 21:42:42 16° 67° (ENE) 21:45:23 437.445
CUBEBUG 2 22 Nov 21:44:35 21:48:55 69° 259° (WSW) 21:53:09 437.445
CINEMA 3 22 Nov 21:46:36 21:50:51 40° 261° (W) 21:54:57 145.822/145.860
UWE-3 22 Nov 21:52:25 21:56:42 65° 259° (W) 22:00:53 435.000/436.395/437.385
Oscar 11 22 Nov 21:52:56 21:56:43 30° 263° (W) 22:00:32 145.826/435.025
NANOSAT C BR1 22 Nov 21:59:33 22:00:53 11° 92° (E) 22:02:13 145.865
ANTELSAT 22 Nov 22:04:38 22:08:07 22° 96° (E) 22:11:38 437.575/2403.000
BEESAT 3 22 Nov 22:04:40 22:07:26 17° 310° (NW) 22:10:13 437.485
QB50P1 22 Nov 22:07:57 22:10:22 15° 94° (E) 22:12:46 145.935-145.965
ESTCUBE 1 22 Nov 22:10:08 22:14:16 36° 72° (ENE) 22:18:27 437.505/2401.250
DX 1 22 Nov 22:11:21 22:14:38 21° 264° (W) 22:17:55 434.975-435.025
BEESAT 2 22 Nov 22:17:40 22:20:00 15° 311° (NW) 22:22:22 435.950
GONETS M04 22 Nov 22:21:00 22:23:34 12° 284° (WNW) 22:26:07
PCSat 22 Nov 22:22:07 22:22:38 10° 316° (NW) 22:23:08 145.827
PHONESAT 2.4 22 Nov 22:22:34 22:25:44 27° 214° (SW) 22:28:53 2401.200-2431.200
VELOX 1 22 Nov 22:24:07 22:28:29 52° 260° (W) 22:32:52 145.980
DOVE 4 22 Nov 22:25:39 22:26:10 10° 268° (W) 22:26:40 437.250
POPSAT HIP 1 22 Nov 22:31:11 22:34:51 28° 97° (E) 22:38:29 437.405
AIST 2 22 Nov 22:35:26 22:38:29 19° 309° (NW) 22:41:34 435.215
BUGSAT 1 22 Nov 22:36:33 22:40:00 26° 97° (E) 22:43:25 437.445
ZACube-1 22 Nov 22:36:35 22:39:58 23° 264° (W) 22:43:19 437.345
HUMSAT D 22 Nov 22:46:11 22:49:47 28° 263° (W) 22:53:23 437.325/437.525
AISAT 22 Nov 22:48:49 22:52:37 27° 263° (W) 22:56:26 437.250
VERMONT LUNAR 22 Nov 22:49:57 22:51:07 11° 220° (SW) 22:52:16 437.305
50 SAT 22 Nov 22:59:00 23:02:16 23° 264° (W) 23:05:32 437.505
TIGRISAT 22 Nov 23:00:34 23:04:59 83° 283° (WNW) 23:09:29 435.000
POLYITAN 1 22 Nov 23:02:05 23:06:18 72° 102° (ESE) 23:10:31 437.675
QB50P2 22 Nov 23:05:34 23:09:48 79° 102° (ESE) 23:14:02 145.880/145.840
UNISAT 6 22 Nov 23:12:16 23:16:38 59° 285° (WNW) 23:21:04 437.425
DUCHIFAT 1 22 Nov 23:13:59 23:18:13 83° 283° (WNW) 23:22:24 145.980
CUBEBUG 1 22 Nov 23:14:31 23:18:43 41° 261° (W) 23:22:56 437.445
SPROUT 22 Nov 23:16:52 23:20:55 40° 73° (ENE) 23:24:58 437.525
TISAT 1 22 Nov 23:18:00 23:22:08 49° 74° (ENE) 23:26:16 437.305
RS-15 22 Nov 23:26:13 23:33:47 20° 31° (NNE) 23:41:29 29.354- 29.394
NANOSAT C BR1 22 Nov 23:32:57 23:37:00 47° 286° (WNW) 23:41:02 145.865
AUBIESAT-1 22 Nov 23:38:41 23:41:44 22° 63° (ENE) 23:45:00 437.475
ANTELSAT 22 Nov 23:41:05 23:44:52 28° 289° (WNW) 23:48:42 437.575/2403.000
M-CUBED/EXP-1 PRIME 22 Nov 23:41:10 23:44:25 26° 64° (ENE) 23:47:55 437.505
QB50P1 22 Nov 23:42:30 23:46:22 36° 287° (WNW) 23:50:13 145.935-145.965
ESTCUBE 1 22 Nov 23:48:11 23:51:14 18° 266° (W) 23:54:17 437.505/2401.250
ISS 22 Nov 23:55:28 23:58:38 48° 134° (SE) 00:01:49 145.825
ITUPSAT 1 23 Nov 00:04:40 00:08:25 23° 68° (ENE) 00:12:12 437.325
POPSAT HIP 1 23 Nov 00:07:31 00:10:33 20° 291° (WNW) 00:13:34 437.405
BUGSAT 1 23 Nov 00:12:22 00:15:20 20° 291° (WNW) 00:18:16 437.445
SWISSCUBE 23 Nov 00:16:23 00:20:41 34° 71° (ENE) 00:25:00 437.505
CUSAT 1 23 Nov 00:36:44 00:41:18 80° 262° (W) 00:47:29 437.405
DANDE 23 Nov 00:47:21 00:51:44 75° 262° (W) 00:57:44 436.750
BEESAT 23 Nov 00:47:43 00:52:27 69° 75° (ENE) 00:57:14 436.000
SPROUT 23 Nov 00:54:48 00:57:09 14° 267° (W) 00:59:29 437.525
TISAT 1 23 Nov 00:56:50 00:58:12 11° 268° (W) 00:59:35 437.305
AUBIESAT-1 23 Nov 01:13:27 01:16:37 24° 261° (W) 01:20:01 437.475
Oscar 19 23 Nov 01:15:31 01:20:21 40° 99° (E) 01:25:11 437.125/150
M-CUBED/EXP-1 PRIME 23 Nov 01:16:34 01:19:28 20° 262° (W) 01:22:34 437.505
JUGNU 23 Nov 01:24:23 01:27:57 16° 173° (S) 01:31:33 437.505
SRMSAT 23 Nov 01:30:22 01:32:07 11° 165° (SSE) 01:33:52 437.500
YUBILEINY 23 Nov 01:32:49 01:39:04 22° 82° (E) 01:45:18 435.215
ISS 23 Nov 01:33:12 01:35:28 17° 330° (NNW) 01:37:46 145.825
STARS 23 Nov 01:36:59 01:40:47 29° 71° (ENE) 01:44:35 437.465
RS-15 23 Nov 01:37:36 01:48:49 66° 57° (ENE) 02:00:30 29.354- 29.394
MaSat-1 23 Nov 01:38:59 01:41:19 73° 68° (ENE) 01:43:43 437.345
ITUPSAT 1 23 Nov 01:41:52 01:46:07 31° 263° (W) 01:50:24 437.325
SWISSCUBE 23 Nov 01:54:58 01:58:34 21° 265° (W) 02:02:11 437.505
ITAMSAT 1 23 Nov 02:00:58 02:05:51 41° 99° (E) 02:10:41 435.822/435.867
KKS-1 23 Nov 02:09:42 02:14:09 75° 258° (WSW) 02:18:37 437.445
Gurwin Techsat 1B 23 Nov 02:13:28 02:18:08 31° 97° (E) 02:22:46 435.225
Oscar 19 23 Nov 02:55:35 02:59:23 21° 293° (WNW) 03:03:12 437.125/150
JUGNU 23 Nov 03:12:23 03:16:16 18° 183° (S) 03:20:10 437.505
STARS 23 Nov 03:13:56 03:17:14 21° 265° (W) 03:20:34 437.465
SRMSAT 23 Nov 03:16:44 03:20:33 18° 175° (S) 03:24:22 437.500
HORYU 2 23 Nov 03:19:34 03:24:02 64° 101° (ESE) 03:28:29 437.375
YUBILEINY 23 Nov 03:26:14 03:34:59 68° 279° (W) 03:43:45 435.215
AO-7 23 Nov 03:32:06 03:39:17 31° 98° (E) 03:46:24 29.400- 29.500
ITAMSAT 1 23 Nov 03:41:14 03:45:00 21° 294° (WNW) 03:48:46 435.822/435.867
RS-15 23 Nov 03:51:00 04:00:25 32° 255° (WSW) 04:10:13 29.354- 29.394
Gurwin Techsat 1B 23 Nov 03:53:29 03:57:57 28° 291° (WNW) 04:02:25 435.225
SO-50 23 Nov 04:14:15 04:18:42 74° 117° (ESE) 04:23:18 436.795
MOZHAYETS 4 23 Nov 04:27:01 04:31:35 80° 76° (ENE) 04:36:12
BEESAT 3 23 Nov 04:50:03 04:51:31 12° 46° (NE) 04:52:58 437.485
HORYU 2 23 Nov 04:59:12 05:00:08 11° 296° (WNW) 05:01:04 437.375
BEESAT 2 23 Nov 05:02:08 05:04:23 14° 48° (NE) 05:06:36 435.950
JUGNU 23 Nov 05:02:09 05:04:34 13° 193° (SSW) 05:06:59 437.505
SRMSAT 23 Nov 05:05:16 05:09:02 17° 186° (S) 05:12:47 437.500
STRAND 1 23 Nov 05:13:34 05:17:05 19° 66° (ENE) 05:20:37 437.568
PRISM 23 Nov 05:14:01 05:18:02 47° 74° (ENE) 05:22:05 437.425
AIST 2 23 Nov 05:22:38 05:24:16 12° 46° (NE) 05:25:53 435.215
